Regional Weather Roundup
Issued by NWS

Home | Current Version | Previous Version | Graphics & Text | Print | Product List | Glossary On
Versions: 1 2 3 4 5 6 7 8 9 10 11 12 13 14 15 16 17 18 19 20 21 22 23 24 25 26 27 28 29 30 31 32 33 34 35 36 37 38 39 40 41 42 43 44 45 46 47 48 49 50
000
ASUS43 KTOP 260608
RWRKS

WEATHER ROUNDUP FOR KANSAS
NATIONAL WEATHER SERVICE GOODLAND KS
100 AM CDT SAT JUL 26 2014

NOTE:  "FAIR" INDICATES FEW OR NO CLOUDS BELOW 12,000 FEET WITH NO
SIGNIFICANT WEATHER AND/OR OBSTRUCTIONS TO VISIBILITY.

KSZ001>006-013>018-027>032-041>047-260700-
NORTHWEST KANSAS

CITY           SKY/WX    TMP DP  RH WIND       PRES   REMARKS
GOODLAND       RAIN      73  66  78 S14       30.04R
6HR MIN TEMP:  73; 6HR MAX TEMP:  92; 6HR PCP:  0.07;

HAYS           CLEAR     79  68  69 SE6       29.83F
HILL CITY      PTCLDY    77  69  76 CALM      29.85S
6HR MIN TEMP:  76; 6HR MAX TEMP:  99;

RUSSELL        CLEAR     78  70  76 SW6       29.80F
6HR MIN TEMP:  77; 6HR MAX TEMP: 101;

$$

KSZ061>065-074>080-084>089-260700-
SOUTHWEST KANSAS

CITY           SKY/WX    TMP DP  RH WIND       PRES   REMARKS
DODGE CITY     CLOUDY    85  53  33 SW13      29.90R
6HR MIN TEMP:  83; 6HR MAX TEMP:  98;

ELKHART          N/A     82  56  40 S6          N/A
GARDEN CITY    CLOUDY    83  60  45 NW12G24   29.92R
6HR MIN TEMP:  83; 6HR MAX TEMP: 101;

GREAT BEND     CLEAR     81  61  50 CALM      29.83R
LIBERAL        CLOUDY    84  55  37 W6        29.99R
PRATT          CLEAR     79  55  44 S13       29.87S
$$

KSZ066>073-081>083-090>101-260700-
SOUTHEAST KANSAS

CITY           SKY/WX    TMP DP  RH WIND       PRES   REMARKS
CHANUTE        CLEAR     80  72  76 S15       29.87S
6HR MIN TEMP:  80; 6HR MAX TEMP:  90;

COFFEYVILLE    CLEAR     80  73  79 S16G23    29.88S
6HR MIN TEMP:  80; 6HR MAX TEMP:  90;

HUTCHINSON     CLEAR     84  60  44 S12       29.84R
6HR MIN TEMP:  83; 6HR MAX TEMP: 101;

MEDICINE LODGE   N/A     82  59  45 S6        29.86R
NEWTON         PTCLDY    84  63  48 S17       29.89R
PARSONS        CLEAR     79  72  79 S12       29.89S
6HR MIN TEMP:  79; 6HR MAX TEMP:  89;

WICHITA INTL   PTCLDY    83  67  58 S16       29.86R
6HR MIN TEMP:  83; 6HR MAX TEMP:  99;

WICHITA JABRA  PTCLDY    85  69  58 S17G28    29.86R
6HR MIN TEMP:  84; 6HR MAX TEMP: 100;

WICHITA MCCONL PTCLDY    83  69  63 S16       29.87R
WINFIELD       CLEAR     81  71  71 S14       29.88S
6HR MIN TEMP:  81; 6HR MAX TEMP:  95;

$$

KSZ007>012-019>026-033>040-048>060-102>105-260700-
NORTHEAST KANSAS

CITY           SKY/WX    TMP DP  RH WIND       PRES   REMARKS
CONCORDIA      CLEAR     77  74  90 CALM      29.79S
6HR MIN TEMP:  77; 6HR MAX TEMP: 100;

EMPORIA        PTCLDY    81  73  76 S18       29.83S
6HR MIN TEMP:  81; 6HR MAX TEMP:  92;

LAWRENCE       CLEAR     84  73  69 S8G17     29.81S
6HR MIN TEMP:  84; 6HR MAX TEMP:  96;

MANHATTAN      PTCLDY    86  70  58 S14       29.78F
6HR MIN TEMP:  86; 6HR MAX TEMP: 102;

MARYSVILLE     PTCLDY    79  72  78 S3        29.80S
OLATHE IND     CLEAR     81  73  76 S16       29.84R
6HR MIN TEMP:  81; 6HR MAX TEMP:  91;

OLATHE EXE     CLEAR     80  73  79 SW9G20    29.83S
6HR MIN TEMP:  80; 6HR MAX TEMP:  91;

SALINA         PTCLDY    87  59  38 S15       29.80R
6HR MIN TEMP:  87; 6HR MAX TEMP: 105;

TOPEKA BILLARD PTCLDY    86  74  67 S10G21    29.80S
6HR MIN TEMP:  86; 6HR MAX TEMP:  98;

TOPEKA FORBES  PTCLDY    84  73  69 S14       29.81S
6HR MIN TEMP:  84; 6HR MAX TEMP:  96;

$$


USA.gov is the U.S. government's official web portal to all federal, state and local government web resources and services.